Year,Month,Day,Hour,Minute,Value (Times are PST for temperature in C)
2005,09,25,00,00,11.70
2005,09,25,00,01,11.70
2005,09,25,00,02,11.70
2005,09,25,00,03,11.70
2005,09,25,00,04,11.70
2005,09,25,00,05,11.70
2005,09,25,00,06,11.70
2005,09,25,00,07,11.70
2005,09,25,00,08,11.70
2005,09,25,00,09,11.70
2005,09,25,00,10,11.70
2005,09,25,00,11,11.70
2005,09,25,00,12,11.70
2005,09,25,00,13,11.70
2005,09,25,00,14,11.70
2005,09,25,00,15,11.70
2005,09,25,00,16,11.70
2005,09,25,00,17,11.70
2005,09,25,00,18,11.70
2005,09,25,00,19,11.70
2005,09,25,00,20,11.70
2005,09,25,00,21,11.70
2005,09,25,00,22,11.60
2005,09,25,00,23,11.60
2005,09,25,00,24,11.60
2005,09,25,00,25,11.60
2005,09,25,00,26,11.60
2005,09,25,00,27,11.60
2005,09,25,00,28,11.60
2005,09,25,00,29,11.60
2005,09,25,00,30,11.60
2005,09,25,00,31,11.60
2005,09,25,00,32,11.60
2005,09,25,00,33,11.60
2005,09,25,00,34,11.60
2005,09,25,00,35,11.60
2005,09,25,00,36,11.60
2005,09,25,00,37,11.60
2005,09,25,00,38,11.60
2005,09,25,00,39,11.60
2005,09,25,00,40,11.60
2005,09,25,00,41,11.60
2005,09,25,00,42,11.60
2005,09,25,00,43,11.60
2005,09,25,00,44,11.60
2005,09,25,00,45,11.70
2005,09,25,00,46,11.80
2005,09,25,00,47,11.80
2005,09,25,00,48,11.80
2005,09,25,00,49,11.80
2005,09,25,00,50,11.80
2005,09,25,00,51,11.70
2005,09,25,00,52,11.70
2005,09,25,00,53,11.60
2005,09,25,00,54,11.60
2005,09,25,00,55,11.60
2005,09,25,00,56,11.50
2005,09,25,00,57,11.40
2005,09,25,00,58,11.40
2005,09,25,00,59,11.40
2005,09,25,01,00,11.40
2005,09,25,01,01,11.30
2005,09,25,01,02,11.30
2005,09,25,01,03,11.30
2005,09,25,01,04,11.20
2005,09,25,01,05,11.20
2005,09,25,01,06,11.20
2005,09,25,01,07,11.20
2005,09,25,01,08,11.20
2005,09,25,01,09,11.20
2005,09,25,01,10,11.20
2005,09,25,01,11,11.20
2005,09,25,01,12,11.20
2005,09,25,01,13,11.20
2005,09,25,01,14,11.20
2005,09,25,01,15,11.20
2005,09,25,01,16,11.20
2005,09,25,01,17,11.20
2005,09,25,01,18,11.20
2005,09,25,01,19,11.20
2005,09,25,01,20,11.20
2005,09,25,01,21,11.20
2005,09,25,01,22,11.20
2005,09,25,01,23,11.20
2005,09,25,01,24,11.20
2005,09,25,01,25,11.20
2005,09,25,01,26,11.20
2005,09,25,01,27,11.30
2005,09,25,01,28,11.20
2005,09,25,01,29,11.20
2005,09,25,01,30,11.20
2005,09,25,01,31,11.20
2005,09,25,01,32,11.10
2005,09,25,01,33,11.10
2005,09,25,01,34,11.10
2005,09,25,01,35,11.10
2005,09,25,01,36,11.10
2005,09,25,01,37,11.10
2005,09,25,01,38,11.10
2005,09,25,01,39,11.10
2005,09,25,01,40,11.10
2005,09,25,01,41,11.10
2005,09,25,01,42,11.10
2005,09,25,01,43,11.10
2005,09,25,01,44,11.10
2005,09,25,01,45,11.10
2005,09,25,01,46,11.10
2005,09,25,01,47,11.10
2005,09,25,01,48,11.10
2005,09,25,01,49,11.00
2005,09,25,01,50,11.00
2005,09,25,01,51,10.90
2005,09,25,01,52,10.90
2005,09,25,01,53,10.90
2005,09,25,01,54,10.90
2005,09,25,01,55,10.90
2005,09,25,01,56,10.90
2005,09,25,01,57,10.90
2005,09,25,01,58,10.90
2005,09,25,01,59,11.00
2005,09,25,02,00,11.10
2005,09,25,02,01,11.10
2005,09,25,02,02,11.10
2005,09,25,02,03,11.10
2005,09,25,02,04,11.10
2005,09,25,02,05,11.10
2005,09,25,02,06,11.10
2005,09,25,02,07,11.10
2005,09,25,02,08,11.10
2005,09,25,02,09,11.10
2005,09,25,02,10,11.10
2005,09,25,02,11,11.10
2005,09,25,02,12,11.10
2005,09,25,02,13,11.10
2005,09,25,02,14,11.00
2005,09,25,02,15,10.90
2005,09,25,02,16,10.90
2005,09,25,02,17,10.80
2005,09,25,02,18,10.70
2005,09,25,02,19,10.70
2005,09,25,02,20,10.60
2005,09,25,02,21,10.50
2005,09,25,02,22,10.40
2005,09,25,02,23,10.40
2005,09,25,02,24,10.40
2005,09,25,02,25,10.40
2005,09,25,02,26,10.30
2005,09,25,02,27,10.30
2005,09,25,02,28,10.20
2005,09,25,02,29,10.20
2005,09,25,02,30,10.10
2005,09,25,02,31,10.10
2005,09,25,02,32,10.10
2005,09,25,02,33,10.00
2005,09,25,02,34,9.90
2005,09,25,02,35,9.90
2005,09,25,02,36,9.90
2005,09,25,02,37,9.90
2005,09,25,02,38,9.90
2005,09,25,02,39,9.90
2005,09,25,02,40,9.90
2005,09,25,02,41,9.90
2005,09,25,02,42,9.90
2005,09,25,02,43,9.90
2005,09,25,02,44,9.90
2005,09,25,02,45,9.90
2005,09,25,02,46,9.90
2005,09,25,02,47,9.90
2005,09,25,02,48,9.90
2005,09,25,02,49,9.90
2005,09,25,02,50,9.90
2005,09,25,02,51,9.90
2005,09,25,02,52,9.90
2005,09,25,02,53,9.90
2005,09,25,02,54,9.90
2005,09,25,02,55,9.90
2005,09,25,02,56,9.90
2005,09,25,02,57,9.90
2005,09,25,02,58,9.90
2005,09,25,02,59,9.90
2005,09,25,03,00,9.90
2005,09,25,03,01,10.00
2005,09,25,03,02,10.10
2005,09,25,03,03,10.10
2005,09,25,03,04,10.10
2005,09,25,03,05,10.10
2005,09,25,03,06,10.10
2005,09,25,03,07,10.10
2005,09,25,03,08,10.10
2005,09,25,03,09,10.10
2005,09,25,03,10,10.10
2005,09,25,03,11,10.10
2005,09,25,03,12,10.10
2005,09,25,03,13,10.00
2005,09,25,03,14,9.90
2005,09,25,03,15,9.90
2005,09,25,03,16,9.90
2005,09,25,03,17,9.90
2005,09,25,03,18,9.90
2005,09,25,03,19,9.90
2005,09,25,03,20,9.80
2005,09,25,03,21,9.80
2005,09,25,03,22,9.70
2005,09,25,03,23,9.70
2005,09,25,03,24,9.70
2005,09,25,03,25,9.70
2005,09,25,03,26,9.70
2005,09,25,03,27,9.60
2005,09,25,03,28,9.60
2005,09,25,03,29,9.60
2005,09,25,03,30,9.60
2005,09,25,03,31,9.50
2005,09,25,03,32,9.50
2005,09,25,03,33,9.60
2005,09,25,03,34,9.60
2005,09,25,03,35,9.60
2005,09,25,03,36,9.60
2005,09,25,03,37,9.60
2005,09,25,03,38,9.60
2005,09,25,03,39,9.70
2005,09,25,03,40,9.70
2005,09,25,03,41,9.70
2005,09,25,03,42,9.80
2005,09,25,03,43,9.80
2005,09,25,03,44,9.90
2005,09,25,03,45,9.90
2005,09,25,03,46,9.90
2005,09,25,03,47,10.00
2005,09,25,03,48,10.10
2005,09,25,03,49,10.10
2005,09,25,03,50,10.00
2005,09,25,03,51,9.90
2005,09,25,03,52,9.90
2005,09,25,03,53,9.90
2005,09,25,03,54,9.90
2005,09,25,03,55,9.90
2005,09,25,03,56,9.90
2005,09,25,03,57,9.90
2005,09,25,03,58,9.90
2005,09,25,03,59,9.90
2005,09,25,04,00,9.90
2005,09,25,04,01,9.80
2005,09,25,04,02,9.80
2005,09,25,04,03,9.80
2005,09,25,04,04,9.80
2005,09,25,04,05,9.70
2005,09,25,04,06,9.70
2005,09,25,04,07,9.70
2005,09,25,04,08,9.70
2005,09,25,04,09,9.70
2005,09,25,04,10,9.70
2005,09,25,04,11,9.70
2005,09,25,04,12,9.70
2005,09,25,04,13,9.70
2005,09,25,04,14,9.70
2005,09,25,04,15,9.70
2005,09,25,04,16,9.70
2005,09,25,04,17,9.70
2005,09,25,04,18,9.70
2005,09,25,04,19,9.70
2005,09,25,04,20,9.70
2005,09,25,04,21,9.70
2005,09,25,04,22,9.70
2005,09,25,04,23,9.70
2005,09,25,04,24,9.70
2005,09,25,04,25,9.70
2005,09,25,04,26,9.70
2005,09,25,04,27,9.70
2005,09,25,04,28,9.70
2005,09,25,04,29,9.70
2005,09,25,04,30,9.70
2005,09,25,04,31,9.70
2005,09,25,04,32,9.70
2005,09,25,04,33,9.70
2005,09,25,04,34,9.70
2005,09,25,04,35,9.70
2005,09,25,04,36,9.70
2005,09,25,04,37,9.70
2005,09,25,04,38,9.70
2005,09,25,04,39,9.70
2005,09,25,04,40,9.70
2005,09,25,04,41,9.60
2005,09,25,04,42,9.60
2005,09,25,04,43,9.60
2005,09,25,04,44,9.60
2005,09,25,04,45,9.60
2005,09,25,04,46,9.60
2005,09,25,04,47,9.50
2005,09,25,04,48,9.50
2005,09,25,04,49,9.50
2005,09,25,04,50,9.50
2005,09,25,04,51,9.50
2005,09,25,04,52,9.40
2005,09,25,04,53,9.40
2005,09,25,04,54,9.40
2005,09,25,04,55,9.40
2005,09,25,04,56,9.40
2005,09,25,04,57,9.30
2005,09,25,04,58,9.30
2005,09,25,04,59,9.20
2005,09,25,05,00,9.20
2005,09,25,05,01,9.20
2005,09,25,05,02,9.20
2005,09,25,05,03,9.20
2005,09,25,05,04,9.10
2005,09,25,05,05,9.10
2005,09,25,05,06,9.10
2005,09,25,05,07,9.10
2005,09,25,05,08,9.10
2005,09,25,05,09,9.10
2005,09,25,05,10,9.10
2005,09,25,05,11,9.10
2005,09,25,05,12,9.10
2005,09,25,05,13,9.10
2005,09,25,05,14,9.10
2005,09,25,05,15,9.10
2005,09,25,05,16,9.10
2005,09,25,05,17,9.10
2005,09,25,05,18,9.10
2005,09,25,05,19,9.10
2005,09,25,05,20,9.10
2005,09,25,05,21,9.00
2005,09,25,05,22,9.00
2005,09,25,05,23,9.00
2005,09,25,05,24,9.00
2005,09,25,05,25,9.00
2005,09,25,05,26,9.00
2005,09,25,05,27,9.00
2005,09,25,05,28,9.00
2005,09,25,05,29,9.00
2005,09,25,05,30,9.00
2005,09,25,05,31,9.00
2005,09,25,05,32,8.90
2005,09,25,05,33,8.90
2005,09,25,05,34,8.90
2005,09,25,05,35,8.90
2005,09,25,05,36,8.90
2005,09,25,05,37,8.90
2005,09,25,05,38,8.80
2005,09,25,05,39,8.80
2005,09,25,05,40,8.80
2005,09,25,05,41,8.80
2005,09,25,05,42,8.80
2005,09,25,05,43,8.80
2005,09,25,05,44,8.70
2005,09,25,05,45,8.70
2005,09,25,05,46,8.70
2005,09,25,05,47,8.70
2005,09,25,05,48,8.70
2005,09,25,05,49,8.70
2005,09,25,05,50,8.70
2005,09,25,05,51,8.70
2005,09,25,05,52,8.70
2005,09,25,05,53,8.60
2005,09,25,05,54,8.60
2005,09,25,05,55,8.60
2005,09,25,05,56,8.60
2005,09,25,05,57,8.60
2005,09,25,05,58,8.60
2005,09,25,05,59,8.50
2005,09,25,06,00,8.50
2005,09,25,06,01,8.50
2005,09,25,06,02,8.50
2005,09,25,06,03,8.50
2005,09,25,06,04,8.50
2005,09,25,06,05,8.50
2005,09,25,06,06,8.60
2005,09,25,06,07,8.60
2005,09,25,06,08,8.60
2005,09,25,06,09,8.70
2005,09,25,06,10,8.70
2005,09,25,06,11,8.70
2005,09,25,06,12,8.70
2005,09,25,06,13,8.70
2005,09,25,06,14,8.70
2005,09,25,06,15,8.70
2005,09,25,06,16,8.80
2005,09,25,06,17,8.80
2005,09,25,06,18,8.80
2005,09,25,06,19,8.80
2005,09,25,06,20,8.90
2005,09,25,06,21,8.90
2005,09,25,06,22,8.80
2005,09,25,06,23,8.80
2005,09,25,06,24,8.80
2005,09,25,06,25,8.80
2005,09,25,06,26,8.80
2005,09,25,06,27,8.80
2005,09,25,06,28,8.70
2005,09,25,06,29,8.70
2005,09,25,06,30,8.70
2005,09,25,06,31,8.70
2005,09,25,06,32,8.70
2005,09,25,06,33,8.70
2005,09,25,06,34,8.70
2005,09,25,06,35,8.60
2005,09,25,06,36,8.60
2005,09,25,06,37,8.60
2005,09,25,06,38,8.60
2005,09,25,06,39,8.70
2005,09,25,06,40,8.70
2005,09,25,06,41,8.70
2005,09,25,06,42,8.70
2005,09,25,06,43,8.70
2005,09,25,06,44,8.70
2005,09,25,06,45,8.70
2005,09,25,06,46,8.70
2005,09,25,06,47,8.70
2005,09,25,06,48,8.70
2005,09,25,06,49,8.70
2005,09,25,06,50,8.70
2005,09,25,06,51,8.70
2005,09,25,06,52,8.70
2005,09,25,06,53,8.70
2005,09,25,06,54,8.60
2005,09,25,06,55,8.60
2005,09,25,06,56,8.60
2005,09,25,06,57,8.60
2005,09,25,06,58,8.60
2005,09,25,06,59,8.60
2005,09,25,07,00,8.60
2005,09,25,07,01,8.50
2005,09,25,07,02,8.50
2005,09,25,07,03,8.50
2005,09,25,07,04,8.50
2005,09,25,07,05,8.50
2005,09,25,07,06,8.50
2005,09,25,07,07,8.50
2005,09,25,07,08,8.40
2005,09,25,07,09,8.40
2005,09,25,07,10,8.40
2005,09,25,07,11,8.40
2005,09,25,07,12,8.40
2005,09,25,07,13,8.40
2005,09,25,07,14,8.40
2005,09,25,07,15,8.40
2005,09,25,07,16,8.40
2005,09,25,07,17,8.40
2005,09,25,07,18,8.40
2005,09,25,07,19,8.40
2005,09,25,07,20,8.40
2005,09,25,07,21,8.40
2005,09,25,07,22,8.40
2005,09,25,07,23,8.40
2005,09,25,07,24,8.40
2005,09,25,07,25,8.40
2005,09,25,07,26,8.40
2005,09,25,07,27,8.40
2005,09,25,07,28,8.40
2005,09,25,07,29,8.50
2005,09,25,07,30,8.50
2005,09,25,07,31,8.50
2005,09,25,07,32,8.50
2005,09,25,07,33,8.50
2005,09,25,07,34,8.50
2005,09,25,07,35,8.50
2005,09,25,07,36,8.60
2005,09,25,07,37,8.70
2005,09,25,07,38,8.70
2005,09,25,07,39,8.70
2005,09,25,07,40,8.70
2005,09,25,07,41,8.80
2005,09,25,07,42,8.80
2005,09,25,07,43,8.80
2005,09,25,07,44,8.90
2005,09,25,07,45,8.90
2005,09,25,07,46,9.00
2005,09,25,07,47,9.10
2005,09,25,07,48,9.10
2005,09,25,07,49,9.20
2005,09,25,07,50,9.30
2005,09,25,07,51,9.40
2005,09,25,07,52,9.40
2005,09,25,07,53,9.50
2005,09,25,07,54,9.60
2005,09,25,07,55,9.70
2005,09,25,07,56,9.70
2005,09,25,07,57,9.80
2005,09,25,07,58,9.80
2005,09,25,07,59,9.90
2005,09,25,08,00,9.90
2005,09,25,08,01,9.90
2005,09,25,08,02,10.10
2005,09,25,08,03,10.10
2005,09,25,08,04,10.10
2005,09,25,08,05,10.10
2005,09,25,08,06,10.10
2005,09,25,08,07,10.10
2005,09,25,08,08,10.10
2005,09,25,08,09,10.20
2005,09,25,08,10,10.20
2005,09,25,08,11,10.20
2005,09,25,08,12,10.30
2005,09,25,08,13,10.30
2005,09,25,08,14,10.30
2005,09,25,08,15,10.40
2005,09,25,08,16,10.40
2005,09,25,08,17,10.40
2005,09,25,08,18,10.40
2005,09,25,08,19,10.50
2005,09,25,08,20,10.60
2005,09,25,08,21,10.60
2005,09,25,08,22,10.60
2005,09,25,08,23,10.60
2005,09,25,08,24,10.70
2005,09,25,08,25,10.70
2005,09,25,08,26,10.70
2005,09,25,08,27,10.80
2005,09,25,08,28,10.80
2005,09,25,08,29,10.80
2005,09,25,08,30,10.90
2005,09,25,08,31,10.90
2005,09,25,08,32,10.90
2005,09,25,08,33,10.90
2005,09,25,08,34,11.00
2005,09,25,08,35,11.10
2005,09,25,08,36,11.10
2005,09,25,08,37,11.10
2005,09,25,08,38,11.10
2005,09,25,08,39,11.10
2005,09,25,08,40,11.20
2005,09,25,08,41,11.30
2005,09,25,08,42,11.30
2005,09,25,08,43,11.30
2005,09,25,08,44,11.40
2005,09,25,08,45,11.40
2005,09,25,08,46,11.40
2005,09,25,08,47,11.40
2005,09,25,08,48,11.40
2005,09,25,08,49,11.50
2005,09,25,08,50,11.60
2005,09,25,08,51,11.60
2005,09,25,08,52,11.60
2005,09,25,08,53,11.60
2005,09,25,08,54,11.70
2005,09,25,08,55,11.70
2005,09,25,08,56,11.80
2005,09,25,08,57,11.80
2005,09,25,08,58,11.80
2005,09,25,08,59,11.90
2005,09,25,09,00,11.90
2005,09,25,09,01,12.00
2005,09,25,09,02,12.00
2005,09,25,09,03,12.00
2005,09,25,09,04,12.10
2005,09,25,09,05,12.10
2005,09,25,09,06,12.10
2005,09,25,09,07,12.20
2005,09,25,09,08,12.20
2005,09,25,09,09,12.30
2005,09,25,09,10,12.30
2005,09,25,09,11,12.30
2005,09,25,09,12,12.40
2005,09,25,09,13,12.50
2005,09,25,09,14,12.50
2005,09,25,09,15,12.60
2005,09,25,09,16,12.60
2005,09,25,09,17,12.70
2005,09,25,09,18,12.70
2005,09,25,09,19,12.70
2005,09,25,09,20,12.70
2005,09,25,09,21,12.70
2005,09,25,09,22,12.70
2005,09,25,09,23,12.80
2005,09,25,09,24,12.80
2005,09,25,09,25,12.80
2005,09,25,09,26,12.80
2005,09,25,09,27,12.80
2005,09,25,09,28,12.80
2005,09,25,09,29,12.80
2005,09,25,09,30,12.80
2005,09,25,09,31,12.80
2005,09,25,09,32,12.80
2005,09,25,09,33,12.90
2005,09,25,09,34,12.90
2005,09,25,09,35,13.00
2005,09,25,09,36,13.00
2005,09,25,09,37,13.10
2005,09,25,09,38,13.10
2005,09,25,09,39,13.20
2005,09,25,09,40,13.30
2005,09,25,09,41,13.30
2005,09,25,09,42,13.30
2005,09,25,09,43,13.40
2005,09,25,09,44,13.40
2005,09,25,09,45,13.40
2005,09,25,09,46,13.50
2005,09,25,09,47,13.50
2005,09,25,09,48,13.60
2005,09,25,09,49,13.60
2005,09,25,09,50,13.60
2005,09,25,09,51,13.70
2005,09,25,09,52,13.70
2005,09,25,09,53,13.70
2005,09,25,09,54,13.70
2005,09,25,09,55,13.70
2005,09,25,09,56,13.70
2005,09,25,09,57,13.80
2005,09,25,09,58,13.80
2005,09,25,09,59,13.90
2005,09,25,10,00,13.90
2005,09,25,10,01,14.00
2005,09,25,10,02,14.00
2005,09,25,10,03,14.00
2005,09,25,10,04,14.10
2005,09,25,10,05,14.10
2005,09,25,10,06,14.20
2005,09,25,10,07,14.20
2005,09,25,10,08,14.20
2005,09,25,10,09,14.20
2005,09,25,10,10,14.20
2005,09,25,10,11,14.30
2005,09,25,10,12,14.30
2005,09,25,10,13,14.40
2005,09,25,10,14,14.50
2005,09,25,10,15,14.50
2005,09,25,10,16,14.60
2005,09,25,10,17,14.60
2005,09,25,10,18,14.70
2005,09,25,10,19,14.80
2005,09,25,10,20,14.90
2005,09,25,10,21,14.90
2005,09,25,10,22,14.90
2005,09,25,10,23,14.90
2005,09,25,10,24,14.80
2005,09,25,10,25,14.80
2005,09,25,10,26,14.80
2005,09,25,10,27,14.80
2005,09,25,10,28,14.80
2005,09,25,10,29,14.80
2005,09,25,10,30,14.80
2005,09,25,10,31,14.80
2005,09,25,10,32,14.80
2005,09,25,10,33,14.80
2005,09,25,10,34,14.80
2005,09,25,10,35,14.80
2005,09,25,10,36,14.80
2005,09,25,10,37,14.80
2005,09,25,10,38,14.90
2005,09,25,10,39,14.90
2005,09,25,10,40,14.90
2005,09,25,10,41,14.90
2005,09,25,10,42,14.90
2005,09,25,10,43,14.90
2005,09,25,10,44,14.90
2005,09,25,10,45,14.90
2005,09,25,10,46,14.90
2005,09,25,10,47,14.90
2005,09,25,10,48,14.90
2005,09,25,10,49,15.00
2005,09,25,10,50,15.00
2005,09,25,10,51,15.10
2005,09,25,10,52,15.10
2005,09,25,10,53,15.10
2005,09,25,10,54,15.10
2005,09,25,10,55,15.10
2005,09,25,10,56,15.10
2005,09,25,10,57,15.00
2005,09,25,10,58,15.00
2005,09,25,10,59,15.00
2005,09,25,11,00,15.00
2005,09,25,11,01,14.90
2005,09,25,11,02,14.90
2005,09,25,11,03,14.90
2005,09,25,11,04,14.90
2005,09,25,11,05,14.90
2005,09,25,11,06,15.00
2005,09,25,11,07,15.00
2005,09,25,11,08,15.00
2005,09,25,11,09,15.10
2005,09,25,11,10,15.10
2005,09,25,11,11,15.10
2005,09,25,11,12,15.10
2005,09,25,11,13,15.10
2005,09,25,11,14,15.20
2005,09,25,11,15,15.20
2005,09,25,11,16,15.30
2005,09,25,11,17,15.30
2005,09,25,11,18,15.30
2005,09,25,11,19,15.40
2005,09,25,11,20,15.40
2005,09,25,11,21,15.40
2005,09,25,11,22,15.40
2005,09,25,11,23,15.30
2005,09,25,11,24,15.30
2005,09,25,11,25,15.30
2005,09,25,11,26,15.20
2005,09,25,11,27,15.10
2005,09,25,11,28,15.10
2005,09,25,11,29,15.10
2005,09,25,11,30,15.10
2005,09,25,11,31,15.10
2005,09,25,11,32,15.10
2005,09,25,11,33,15.10
2005,09,25,11,34,15.10
2005,09,25,11,35,15.10
2005,09,25,11,36,15.10
2005,09,25,11,37,15.20
2005,09,25,11,38,15.20
2005,09,25,11,39,15.20
2005,09,25,11,40,15.30
2005,09,25,11,41,15.40
2005,09,25,11,42,15.50
2005,09,25,11,43,15.50
2005,09,25,11,44,15.50
2005,09,25,11,45,15.40
2005,09,25,11,46,15.50
2005,09,25,11,47,15.50
2005,09,25,11,48,15.50
2005,09,25,11,49,15.50
2005,09,25,11,50,15.50
2005,09,25,11,51,15.50
2005,09,25,11,52,15.60
2005,09,25,11,53,15.60
2005,09,25,11,54,15.70
2005,09,25,11,55,15.70
2005,09,25,11,56,15.70
2005,09,25,11,57,15.70
2005,09,25,11,58,15.80
2005,09,25,11,59,15.80
2005,09,25,12,00,15.80
2005,09,25,12,01,15.80
2005,09,25,12,02,15.80
2005,09,25,12,03,15.80
2005,09,25,12,04,15.80
2005,09,25,12,05,15.80
2005,09,25,12,06,15.80
2005,09,25,12,07,15.80
2005,09,25,12,08,15.90
2005,09,25,12,09,15.90
2005,09,25,12,10,16.00
2005,09,25,12,11,16.10
2005,09,25,12,12,16.10
2005,09,25,12,13,16.30
2005,09,25,12,14,16.40
2005,09,25,12,15,16.40
2005,09,25,12,16,16.40
2005,09,25,12,17,16.40
2005,09,25,12,18,16.40
2005,09,25,12,19,16.40
2005,09,25,12,20,16.40
2005,09,25,12,21,16.40
2005,09,25,12,22,16.40
2005,09,25,12,23,16.40
2005,09,25,12,24,16.40
2005,09,25,12,25,16.40
2005,09,25,12,26,16.60
2005,09,25,12,27,16.60
2005,09,25,12,28,16.60
2005,09,25,12,29,16.70
2005,09,25,12,30,16.70
2005,09,25,12,31,16.70
2005,09,25,12,32,16.70
2005,09,25,12,33,16.70
2005,09,25,12,34,16.70
2005,09,25,12,35,16.70
2005,09,25,12,36,16.70
2005,09,25,12,37,16.70
2005,09,25,12,38,16.70
2005,09,25,12,39,16.70
2005,09,25,12,40,16.70
2005,09,25,12,41,16.80
2005,09,25,12,42,16.90
2005,09,25,12,43,17.00
2005,09,25,12,44,17.10
2005,09,25,12,45,17.20
2005,09,25,12,46,17.20
2005,09,25,12,47,17.30
2005,09,25,12,48,17.30
2005,09,25,12,49,17.30
2005,09,25,12,50,17.40
2005,09,25,12,51,17.40
2005,09,25,12,52,17.40
2005,09,25,12,53,17.40
2005,09,25,12,54,17.40
2005,09,25,12,55,17.30
2005,09,25,12,56,17.30
2005,09,25,12,57,17.30
2005,09,25,12,58,17.30
2005,09,25,12,59,17.20
2005,09,25,13,00,17.20
2005,09,25,13,01,17.20
2005,09,25,13,02,17.20
2005,09,25,13,03,17.10
2005,09,25,13,04,17.00
2005,09,25,13,05,17.00
2005,09,25,13,06,17.10
2005,09,25,13,07,17.10
2005,09,25,13,08,17.20
2005,09,25,13,09,17.30
2005,09,25,13,10,17.30
2005,09,25,13,11,17.40
2005,09,25,13,12,17.50
2005,09,25,13,13,17.50
2005,09,25,13,14,17.50
2005,09,25,13,15,17.50
2005,09,25,13,16,17.50
2005,09,25,13,17,17.60
2005,09,25,13,18,17.60
2005,09,25,13,19,17.60
2005,09,25,13,20,17.60
2005,09,25,13,21,17.60
2005,09,25,13,22,17.70
2005,09,25,13,23,17.70
2005,09,25,13,24,17.70
2005,09,25,13,25,17.70
2005,09,25,13,26,17.80
2005,09,25,13,27,17.80
2005,09,25,13,28,17.90
2005,09,25,13,29,17.90
2005,09,25,13,30,17.90
2005,09,25,13,31,17.90
2005,09,25,13,32,17.80
2005,09,25,13,33,17.80
2005,09,25,13,34,17.80
2005,09,25,13,35,17.80
2005,09,25,13,36,17.90
2005,09,25,13,37,17.90
2005,09,25,13,38,18.00
2005,09,25,13,39,18.10
2005,09,25,13,40,18.00
2005,09,25,13,41,17.90
2005,09,25,13,42,17.90
2005,09,25,13,43,17.90
2005,09,25,13,44,17.90
2005,09,25,13,45,17.90
2005,09,25,13,46,17.90
2005,09,25,13,47,17.90
2005,09,25,13,48,17.90
2005,09,25,13,49,17.90
2005,09,25,13,50,18.00
2005,09,25,13,51,18.10
2005,09,25,13,52,18.20
2005,09,25,13,53,18.20
2005,09,25,13,54,18.20
2005,09,25,13,55,18.30
2005,09,25,13,56,18.30
2005,09,25,13,57,18.40
2005,09,25,13,58,18.40
2005,09,25,13,59,18.40
2005,09,25,14,00,18.40
2005,09,25,14,01,18.40
2005,09,25,14,02,18.50
2005,09,25,14,03,18.50
2005,09,25,14,04,18.50
2005,09,25,14,05,18.50
2005,09,25,14,06,18.50
2005,09,25,14,07,18.40
2005,09,25,14,08,18.20
2005,09,25,14,09,18.10
2005,09,25,14,10,18.10
2005,09,25,14,11,18.10
2005,09,25,14,12,18.10
2005,09,25,14,13,18.20
2005,09,25,14,14,18.20
2005,09,25,14,15,18.20
2005,09,25,14,16,18.20
2005,09,25,14,17,18.20
2005,09,25,14,18,18.20
2005,09,25,14,19,18.20
2005,09,25,14,20,18.20
2005,09,25,14,21,18.30
2005,09,25,14,22,18.40
2005,09,25,14,23,18.50
2005,09,25,14,24,18.50
2005,09,25,14,25,18.60
2005,09,25,14,26,18.60
2005,09,25,14,27,18.70
2005,09,25,14,28,18.70
2005,09,25,14,29,18.80
2005,09,25,14,30,18.90
2005,09,25,14,31,18.90
2005,09,25,14,32,18.90
2005,09,25,14,33,18.90
2005,09,25,14,34,18.90
2005,09,25,14,35,18.90
2005,09,25,14,36,18.80
2005,09,25,14,37,18.60
2005,09,25,14,38,18.60
2005,09,25,14,39,18.60
2005,09,25,14,40,18.60
2005,09,25,14,41,18.60
2005,09,25,14,42,18.60
2005,09,25,14,43,17.90
2005,09,25,14,44,17.30
2005,09,25,14,45,17.00
2005,09,25,14,46,16.90
2005,09,25,14,47,16.80
2005,09,25,14,48,16.70
2005,09,25,14,49,16.40
2005,09,25,14,50,16.30
2005,09,25,14,51,16.10
2005,09,25,14,52,16.00
2005,09,25,14,53,15.90
2005,09,25,14,54,15.90
2005,09,25,14,55,15.90
2005,09,25,14,56,15.90
2005,09,25,14,57,16.00
2005,09,25,14,58,16.10
2005,09,25,14,59,16.10
2005,09,25,15,00,16.10
2005,09,25,15,01,16.10
2005,09,25,15,02,16.10
2005,09,25,15,03,16.00
2005,09,25,15,04,15.90
2005,09,25,15,05,15.90
2005,09,25,15,06,16.00
2005,09,25,15,07,16.10
2005,09,25,15,08,16.10
2005,09,25,15,09,16.10
2005,09,25,15,10,16.10
2005,09,25,15,11,16.20
2005,09,25,15,12,16.30
2005,09,25,15,13,16.40
2005,09,25,15,14,16.40
2005,09,25,15,15,16.40
2005,09,25,15,16,16.40
2005,09,25,15,17,16.40
2005,09,25,15,18,16.30
2005,09,25,15,19,16.20
2005,09,25,15,20,16.20
2005,09,25,15,21,16.10
2005,09,25,15,22,16.10
2005,09,25,15,23,16.10
2005,09,25,15,24,16.10
2005,09,25,15,25,16.10
2005,09,25,15,26,16.10
2005,09,25,15,27,16.10
2005,09,25,15,28,16.20
2005,09,25,15,29,16.20
2005,09,25,15,30,16.30
2005,09,25,15,31,16.30
2005,09,25,15,32,16.30
2005,09,25,15,33,16.20
2005,09,25,15,34,16.20
2005,09,25,15,35,16.20
2005,09,25,15,36,16.20
2005,09,25,15,37,16.30
2005,09,25,15,38,16.30
2005,09,25,15,39,16.40
2005,09,25,15,40,16.40
2005,09,25,15,41,16.30
2005,09,25,15,42,16.10
2005,09,25,15,43,16.10
2005,09,25,15,44,16.10
2005,09,25,15,45,16.10
2005,09,25,15,46,16.10
2005,09,25,15,47,15.90
2005,09,25,15,48,16.00
2005,09,25,15,49,16.10
2005,09,25,15,50,16.10
2005,09,25,15,51,16.10
2005,09,25,15,52,16.10
2005,09,25,15,53,16.10
2005,09,25,15,54,16.10
2005,09,25,15,55,16.10
2005,09,25,15,56,16.00
2005,09,25,15,57,15.90
2005,09,25,15,58,15.90
2005,09,25,15,59,16.00
2005,09,25,16,00,16.10
2005,09,25,16,01,16.20
2005,09,25,16,02,16.30
2005,09,25,16,03,16.40
2005,09,25,16,04,16.40
2005,09,25,16,05,16.30
2005,09,25,16,06,16.20
2005,09,25,16,07,16.20
2005,09,25,16,08,16.20
2005,09,25,16,09,16.20
2005,09,25,16,10,16.30
2005,09,25,16,11,16.40
2005,09,25,16,12,16.40
2005,09,25,16,13,16.40
2005,09,25,16,14,16.40
2005,09,25,16,15,16.30
2005,09,25,16,16,16.30
2005,09,25,16,17,16.30
2005,09,25,16,18,16.30
2005,09,25,16,19,16.20
2005,09,25,16,20,16.20
2005,09,25,16,21,16.10
2005,09,25,16,22,16.10
2005,09,25,16,23,16.10
2005,09,25,16,24,16.10
2005,09,25,16,25,16.10
2005,09,25,16,26,15.90
2005,09,25,16,27,15.80
2005,09,25,16,28,15.70
2005,09,25,16,29,15.60
2005,09,25,16,30,15.60
2005,09,25,16,31,15.60
2005,09,25,16,32,15.60
2005,09,25,16,33,15.50
2005,09,25,16,34,15.60
2005,09,25,16,35,15.60
2005,09,25,16,36,15.70
2005,09,25,16,37,15.80
2005,09,25,16,38,15.80
2005,09,25,16,39,15.80
2005,09,25,16,40,15.80
2005,09,25,16,41,15.80
2005,09,25,16,42,15.90
2005,09,25,16,43,16.00
2005,09,25,16,44,16.10
2005,09,25,16,45,16.10
2005,09,25,16,46,16.20
2005,09,25,16,47,16.30
2005,09,25,16,48,16.30
2005,09,25,16,49,16.40
2005,09,25,16,50,16.40
2005,09,25,16,51,16.40
2005,09,25,16,52,16.40
2005,09,25,16,53,16.40
2005,09,25,16,54,16.40
2005,09,25,16,55,16.30
2005,09,25,16,56,16.30
2005,09,25,16,57,16.30
2005,09,25,16,58,16.40
2005,09,25,16,59,16.40
2005,09,25,17,00,16.40
2005,09,25,17,01,16.40
2005,09,25,17,02,16.40
2005,09,25,17,03,16.40
2005,09,25,17,04,16.40
2005,09,25,17,05,16.30
2005,09,25,17,06,16.20
2005,09,25,17,07,16.10
2005,09,25,17,08,16.10
2005,09,25,17,09,16.10
2005,09,25,17,10,16.10
2005,09,25,17,11,16.10
2005,09,25,17,12,16.10
2005,09,25,17,13,16.20
2005,09,25,17,14,16.40
2005,09,25,17,15,16.40
2005,09,25,17,16,16.40
2005,09,25,17,17,16.40
2005,09,25,17,18,16.40
2005,09,25,17,19,16.40
2005,09,25,17,20,16.40
2005,09,25,17,21,16.40
2005,09,25,17,22,16.40
2005,09,25,17,23,16.40
2005,09,25,17,24,16.50
2005,09,25,17,25,16.60
2005,09,25,17,26,16.60
2005,09,25,17,27,16.60
2005,09,25,17,28,16.70
2005,09,25,17,29,16.70
2005,09,25,17,30,16.70
2005,09,25,17,31,16.70
2005,09,25,17,32,16.70